Regional Weather Roundup
Issued by NWS Grand Forks, ND

Home | Current Version | Previous Version | Graphics & Text | Print | Product List | Glossary On
Versions: 1 2 3 4 5 6 7 8 9 10 11 12 13 14 15 16 17 18 19 20 21 22 23 24 25 26 27 28 29 30 31 32 33 34 35 36 37 38 39 40 41 42 43 44 45 46 47 48 49 50
000
ASUS43 KFGF 250210
RWRFGF
PRAIRIE TO PINES  WEATHER ROUNDUP
NATIONAL WEATHER SERVICE EASTERN NORTH DAKOTA/GRAND FORKS ND
900 PM CDT SAT JUN 24 2017

 **SATELLITE DATA USED TO AUGMENT SKY COVER AT AUTOMATED STATIONS**
 *****  WEATHER ACROSS EASTERN NORTH DAKOTA  *****

CITY           SKY/WX    TMP DP  RH WIND       PRES   REMARKS
GRAND FORKS    CLOUDY    52  48  86 NW12      30.14S
GRAND FRKS AFB NOT AVBL
DEVILS LAKE    CLOUDY    55  45  68 N8        30.20S
FARGO          CLOUDY    53  47  79 NW18G25   30.14R
WAHPETON ARPT  MOCLDY    55  43  62 NW13G23   30.14R
$$

 ***** WEATHER ACROSS CENTRAL AND WESTERN NORTH DAKOTA  *****

CITY           SKY/WX    TMP DP  RH WIND       PRES   REMARKS
BISMARCK       FAIR      60  38  43 N10       30.25S
MINOT          FAIR      59  38  45 NW9       30.24S
JAMESTOWN      CLOUDY    54  46  74 N17       30.20R
MINOT AFB      NOT AVBL
GARRISON         N/A     57  37  47 N10       30.25S
WILLISTON      FAIR      66  33  29 N8        30.27S
DICKINSON      FAIR      60  30  32 N10       30.28R
HETTINGER      FAIR      62  31  31 N13       30.30R
$$

 *****  OTHER AIRPORT OBSERVATIONS IN OUR AREA  *****

CITY           SKY/WX    TMP DP  RH WIND       PRES   REMARKS
WALHALLA       NOT AVBL
GRAFTON AIRPOR MOCLDY    52  48  87 NW10      30.17S
VALLEY CITY AR CLOUDY    52  39  62 N15G22    30.20S
CANDO          NOT AVBL
CAVALIER APRT  NOT AVBL
GWINNER        CLOUDY    57  48  72 NW13G21   30.17S
SHEYENNE NWR     N/A     56  41  57 NW14      29.95S
ROLLA            N/A     52  46  82 NW13      30.21F
 ***** THE ABOVE OBSERVATIONS ARE NON NWS ARE NOT QUALITY
       CONTROLLED AND MAY MIS-REPORT RAIN FOR SNOW...
$$

  *****  WEATHER ACROSS NORTHERN MINNESOTA  *****

CITY           SKY/WX    TMP DP  RH WIND       PRES   REMARKS
FLAG ISLAND    CLOUDY    55  52  88 N18G29    30.05R
WARROAD        DRIZZLE   52  48  87 NW10G18   30.07R
ROSEAU         RAIN      52  46  82 N15       30.08R
HALLOCK        CLOUDY    54  48  82 NW9       30.13R
THF RVR FALLS  NOT AVBL
BAUDETTE       LGT RAIN  56  54  93 N13       30.02R
WASKISH        DRIZZLE   55  52  88 W3        30.02R
CROOKSTON      CLOUDY    48  48 100 NW17G23   30.13R
STEPHEN NDAWN    N/A     52  48  87 NW9         N/A
GREENBUSH NDAW   N/A     52  48  87 N10         N/A
$$
  *****  WEATHER ACROSS CENTRAL AND WEST MINNESOTA  *****

CITY           SKY/WX    TMP DP  RH WIND       PRES   REMARKS
FOSSTON        DRIZZLE   48  48 100 NW15G21   30.08R
BEMIDJI        CLOUDY    52  51  95 W14       30.04R
PARK RAPIDS    CLOUDY    53  46  77 NW17      30.06R
ELBOW LAKE     CLOUDY    55  49  80 W12G17    30.12R
WADENA         CLOUDY    52  48  87 NW15G23   30.08R
DETROIT LAKES  CLOUDY    50  46  87 NW21      30.11S
MOORHEAD       CLOUDY    54  46  76 NW17      30.15R
FERGUS FALLS   CLOUDY    55  46  71 N21G29    30.10S
MORRIS MN      CLOUDY    55  50  82 NW15G22   30.11F
STAPLES        CLOUDY    52  48  87 NW16      30.07R
$$
  *****  WEATHER ELSEWHERE ACROSS MINNESOTA  *****

CITY           SKY/WX    TMP DP  RH WIND       PRES   REMARKS
DULUTH         MOCLDY    55  49  80 NW8       29.97R
INTRNTL FALLS  CLOUDY    56  53  90 NW5       29.99S
ELY            CLOUDY    54  50  87 CALM      29.96S
CLOQUET        MOCLDY    57  45  62 W5        29.98S
WHEATON        CLOUDY    57  45  62 NW16      30.15S
BRAINERD       MOCLDY    57  49  74 W15       30.04R
HIBBING        CLOUDY    55  49  80 NW6       29.98R
ALEXANDRIA     CLOUDY    55  49  80 NW17G29   30.10S
SAINT CLOUD    MOCLDY    58  48  69 NW8       30.05S
MINNEAPOLIS    MOCLDY    60  45  57 NW9       30.05R
$$

  *****  WEATHER ACROSS SOUTH DAKOTA  *****

CITY           SKY/WX    TMP DP  RH WIND       PRES   REMARKS
SIOUX FALLS    FAIR      61  42  49 N12       30.16R
BROOKINGS      CLOUDY    59  42  53 N15G21    30.17R
WATERTOWN      CLOUDY    57  44  62 NW18G25   30.17R
HURON          FAIR      60  43  53 N15G24    30.20R
SISSETON         N/A     59  46  62 NW20      30.14S
ABERDEEN       CLOUDY    59  44  57 NW18      30.21R
MITCHELL       FAIR      65  38  36 N10       30.19R
PIERRE         FAIR      62  39  42 N13       30.22R
MOBRIDGE       FAIR      62  38  40 N13       30.21S
RAPID CITY     MOCLDY    68  30  24 N16       30.27R
$$

  *****  SOME WEATHER IN NEARBY STATES *****

CITY           SKY/WX    TMP DP  RH WIND       PRES   REMARKS
GLASGOW MT     FAIR      70  34  26 CALM      30.26S
GREAT FALLS MT FAIR      67  39  35 NE18G26   30.30R
CHEYENNE WY    CLOUDY    64  36  35 E10       30.36R
SCOTTSBLUFF NE FAIR      67  39  35 E7        30.28R
OMAHA NE       FAIR      69  45  41 NW7       30.13R
DES MOINES IA  FAIR      72  40  31 NW10      30.09R
DAVENPORT IA   MOCLDY    66  48  52 SW9       30.04S
CHICAGO IL     MOCLDY    68  43  40 NW8       30.03R
EAU CLAIRE WI  FAIR      57  47  69 W6        30.00S
LA CROSSE WI   FAIR      59  50  72 SW5       30.04R
$$

  *****  SOME NATIONAL WEATHER *****

CITY           SKY/WX    TMP DP  RH WIND       PRES   REMARKS
LA GUARDIA NY  FAIR      82  60  47 SW14G21   29.86R
RALEIGH NC     LGT RAIN  72  72 100 CALM      30.01R
ATLANTA GA     MOCLDY    76  75  97 S6        30.06R
NEW ORLEANS LA MOCLDY    76  75  97 N3        30.06S
OKLAHOMA CITY  MOCLDY    78  52  40 E12       30.17R
ALBUQUERQUE NM MOCLDY    79  48  33 S31G40    30.18R
SALT LAKE CITY FAIR      86  22   9 N6        30.12S
LOS ANGELES CA FAIR      67  60  78 W12       29.85S
BOISE ID       FAIR      86  34  15 W10       30.08S
SEATTLE WA     FAIR      88  54  31 N10       30.00F
$$

*** WEATHER ACROSS MANITOBA...SASKATCHEWAN AND ONTARIO ***
                ***ONTARIO***

CITY           SKY/WX    TMP DP  RH WIND       PRES   REMARKS
GERALDTON      MOCLDY    61  43  51 N8        29.92R
THUNDER BAY    MOCLDY    59  52  77 N5        29.91S
SIOUX LOOKOUT  MOCLDY    55  52  88 N6        30.00R
TORONTO        PTCLDY    64  54  68 W9        29.90R
BIG TROUT LK   PTCLDY    54  37  54 NE3       30.04R
PICKLE LAKE    MOCLDY    54  43  66 N7        30.02R
DRYDEN         CLOUDY    52  52 100 NW5       30.01R
KENORA         CLOUDY    52  48  87 N7        30.07R
$$
                *** MANITOBA***

CITY           SKY/WX    TMP DP  RH WIND       PRES   REMARKS
BRANDON        PTCLDY    54  46  76 NW6       30.20S
DAUPHIN        PTCLDY    54  43  66 NW6       30.20S
ISLAND LAKE    MOCLDY    57  37  47 NW5       30.09S
PILOT MOUND      N/A     50  43  76 NW6         N/A
THE PAS        PTCLDY    57  39  51 CALM      30.19S
THOMPSON       PTCLDY    61  32  33 N9G18     30.10S
WINNIPEG       MOCLDY    54  48  82 NW8       30.14S
LYNN LAKE      SUNNY     59  37  44 N12       30.16S
CHURCHILL      PTCLDY    61  37  41 SW7       30.02F
GILLAM         PTCLDY    59  37  44 NE10      30.07S
$$
                ***SASKATCHEWAN***

CITY           SKY/WX    TMP DP  RH WIND       PRES   REMARKS
ESTEVAN        PTCLDY    59  45  58 N5        30.24S
KINDERSLEY     CLOUDY    57  52  82 E5        30.25S THUNDER
LLOYDMINSTER   PTSUNNY   54  54 100 E8        30.26F
PRINCE ALBERT  MOSUNNY   61  43  51 NE3       30.23R
REGINA         MOCLDY    57  45  62 N12G18    30.25R
YORKTON        MOCLDY    55  46  71 NE6       30.22R
N. BATTLEFORD  LGT RAIN  55  48  76 NE8       30.26R
LA RONGE       MOSUNNY   59  39  47 S6        30.22S
SASKATOON      PTSUNNY   61  50  67 SW7       30.24R
SWIFT CURRENT  CLOUDY    59  45  58 SW9       30.26S
$$
NOTE: THESE ARE AUTOMATED STATIONS WITH LIMITED QUALITY CONTROL
      "FAIR" INDICATES FEW OR NO CLOUDS BELOW 12,000 FEET WITH NO
      SIGNIFICANT WEATHER AND/OR OBSTRUCTIONS TO VISIBILITY.
      SKY/WX - SKY CONDITION AND SIGNIFICANT WEATHER.
      TMP - AIR TEMPERATURE.    DP   - DEWPOINT TEMPERATURE.
      RH  - RELATIVE HUMIDITY.  PRES - PRESSURE.
      HX  - HEAT INDEX.         WCI  - WIND CHILL INDEX.
$




USA.gov is the U.S. government's official web portal to all federal, state and local government web resources and services.